Preview of NWS' New Version of Forecast
This preview is not operational and should not be used for support decisions.

Regional Weather Roundup (RWR)

Issued by National Weather Service (NWS)

                            
000
ASUS45 KBOI 180210
RWRID 

IDAHO REGIONAL WEATHER ROUNDUP
NATIONAL WEATHER SERVICE BOISE ID
800 PM MDT TUE SEP 17 2019

NOTE: "FAIR" INDICATES FEW OR NO CLOUDS BELOW 12000 FEET
WITH NO SIGNIFICANT WEATHER AND/OR OBSTRUCTIONS TO VISIBILITY

IDZ012-014-180300-
SOUTHWEST IDAHO

  
CITY           SKY/WX    TMP DP  RH WIND       PRES   REMARKS
BOISE          MOCLDY    64  40  41 E8        29.93F                  
CALDWELL       MOCLDY    63  44  50 NE5       29.92F                  
MOUNTAIN HOME  PTCLDY    63  41  45 CALM      29.93F                  
$$

IDZ016-017-180300-
SOUTHCENTRAL IDAHO

  
CITY           SKY/WX    TMP DP  RH WIND       PRES   REMARKS
BURLEY         CLEAR     56  38  50 E6        30.02S                  
JEROME         CLEAR     56  39  53 E9        30.01S                  
TWIN FALLS     CLEAR     54  40  59 SE9       30.01S                  
$$

IDZ019>023-180300-
SOUTHEAST IDAHO

  
CITY           SKY/WX    TMP DP  RH WIND       PRES   REMARKS
IDAHO FALLS    CLEAR     54  34  46 S10       30.07S HAZE             
POCATELLO      CLEAR     55  34  45 CALM      30.06F                  
REXBURG        PTCLDY    53  35  50 S12       30.07R                  
$$

IDZ006-010-011-018-031-032-180300-
CENTRAL IDAHO MOUNTAINS

  
CITY           SKY/WX    TMP DP  RH WIND       PRES   REMARKS
MCCALL         LGT RAIN  50  36  58 SE7       30.00F                  
HAILEY         CLEAR     50  37  62 CALM      30.07F                  
STANLEY          N/A     47  34  60 S3        30.07F                  
SALMON         CLEAR     54  45  71 SW3       29.97S                  
CHALLIS        PTCLDY    58  29  33 SW12      29.99S                  
$$

IDZ002-004-006-007-026-180300-
NORTHERN IDAHO

  
CITY           SKY/WX    TMP DP  RH WIND       PRES   REMARKS
LEWISTON       CLOUDY    70  40  33 E6        29.81F                  
LOWELL           N/A     57  52  83 CALM      29.89S                  
COEUR D'ALENE  MOCLDY    60  41  49 E5        29.86F                  
MULLAN PASS    CLEAR     41  35  79 VRB3      29.96F                  
$$